| time (UTC) | temp C | wind direction | speed KPH | gust KPH | rain 1hr cm | rain 24hr cm | rain mn cm | humidity % | barometer mb |
| 20260505022514 | 9 | 207 | 8.0 | 0.0 | 0.00 | 0.00 | 0.03 | 64 | 1003.0 |
| 20260505022014 | 9 | 171 | 1.6 | 0.0 | 0.00 | 0.00 | 0.03 | 64 | 1003.0 |
| 20260505021515 | 9 | 156 | 4.8 | 0.0 | 0.00 | 0.00 | 0.03 | 64 | 1002.7 |
| 20260505021015 | 9 | 67 | 4.8 | 0.0 | 0.00 | 0.00 | 0.03 | 64 | 1002.7 |
| 20260505020513 | 9 | 132 | 3.2 | 0.0 | 0.00 | 0.00 | 0.03 | 64 | 1002.7 |
| 20260505020014 | 9 | 134 | 9.7 | 0.0 | 0.00 | 0.00 | 0.03 | 64 | 1003.7 |
| 20260505015515 | 9 | 145 | 0.0 | 0.0 | 0.00 | 0.00 | 0.03 | 64 | 1003.4 |
| 20260505015015 | 9 | 160 | 8.0 | 0.0 | 0.00 | 0.00 | 0.03 | 64 | 1003.7 |
| 20260505014515 | 9 | 138 | 0.0 | 0.0 | 0.00 | 0.00 | 0.03 | 64 | 1003.7 |
| 20260505014013 | 9 | 138 | 0.0 | 0.0 | 0.00 | 0.00 | 0.03 | 64 | 1003.7 |
| 20260505013514 | 9 | 63 | 0.0 | 0.0 | 0.00 | 0.00 | 0.03 | 64 | 1003.7 |
| 20260505013014 | 9 | 96 | 0.0 | 0.0 | 0.00 | 0.00 | 0.03 | 64 | 1003.7 |
| 20260505012514 | 9 | 89 | 1.6 | 0.0 | 0.00 | 0.00 | 0.03 | 64 | 1003.7 |
| 20260505012013 | 9 | 110 | 0.0 | 0.0 | 0.00 | 0.00 | 0.03 | 64 | 1003.7 |
| 20260505011515 | 9 | 96 | 3.2 | 0.0 | 0.00 | 0.00 | 0.03 | 64 | 1004.1 |
| 20260505011014 | 10 | 101 | 3.2 | 0.0 | 0.00 | 0.00 | 0.03 | 64 | 1003.7 |
| 20260505010512 | 10 | 134 | 6.4 | 0.0 | 0.00 | 0.00 | 0.03 | 64 | 1003.7 |
| 20260505010014 | 10 | 132 | 4.8 | 0.0 | 0.00 | 0.00 | 0.03 | 64 | 1005.4 |
| 20260505005513 | 10 | 103 | 3.2 | 0.0 | 0.00 | 0.00 | 0.03 | 63 | 1005.1 |
| 20260505005013 | 10 | 61 | 6.4 | 0.0 | 0.00 | 0.00 | 0.03 | 63 | 1005.1 |
| 20260505004511 | 10 | 187 | 19.3 | 0.0 | 0.00 | 0.00 | 0.03 | 63 | 1005.1 |
| 20260505004012 | 10 | 184 | 6.4 | 0.0 | 0.00 | 0.00 | 0.03 | 63 | 1005.4 |
| 20260505003512 | 10 | 252 | 0.0 | 0.0 | 0.00 | 0.00 | 0.03 | 63 | 1005.4 |
| 20260505003014 | 10 | 250 | 1.6 | 0.0 | 0.00 | 0.00 | 0.03 | 64 | 1005.4 |
| 20260505002514 | 10 | 251 | 1.6 | 0.0 | 0.00 | 0.00 | 0.03 | 63 | 1005.4 |
| 20260505002013 | 10 | 251 | 0.0 | 0.0 | 0.00 | 0.00 | 0.03 | 62 | 1005.4 |
| 20260505001514 | 10 | 219 | 4.8 | 0.0 | 0.00 | 0.00 | 0.03 | 63 | 1005.4 |
| 20260505001012 | 10 | 203 | 3.2 | 0.0 | 0.00 | 0.00 | 0.03 | 63 | 1005.4 |
| 20260505000513 | 10 | 217 | 9.7 | 0.0 | 0.00 | 0.00 | 0.03 | 61 | 1005.4 |
| 20260505000016 | 10 | 184 | 11.3 | 0.0 | 0.00 | 0.00 | 0.03 | 60 | 1005.4 |
| 20260504235517 | 10 | 310 | 3.2 | 0.0 | 0.00 | 0.00 | 0.03 | 59 | 1005.1 |
| 20260504235011 | 10 | 302 | 4.8 | 0.0 | 0.00 | 0.00 | 0.00 | 56 | 1005.4 |
| 20260504234513 | 10 | 246 | 0.0 | 0.0 | 0.00 | 0.00 | 0.00 | 55 | 1005.1 |
| 20260504234012 | 10 | 245 | 1.6 | 0.0 | 0.00 | 0.00 | 0.00 | 55 | 1005.1 |
| 20260504233513 | 11 | 167 | 3.2 | 0.0 | 0.00 | 0.00 | 0.00 | 55 | 1004.7 |
| 20260504233018 | 11 | 42 | 1.6 | 0.0 | 0.00 | 0.00 | 0.00 | 56 | 1004.7 |
| 20260504232516 | 11 | 42 | 0.0 | 0.0 | 0.00 | 0.00 | 0.00 | 56 | 1004.7 |
| 20260504232017 | 10 | 180 | 0.0 | 0.0 | 0.00 | 0.00 | 0.00 | 56 | 1004.7 |
| 20260504231514 | 10 | 24 | 4.8 | 0.0 | 0.00 | 0.00 | 0.00 | 55 | 1004.7 |
| 20260504231011 | 10 | 46 | 4.8 | 0.0 | 0.00 | 0.00 | 0.00 | 54 | 1004.7 |
| 20260504230513 | 10 | 26 | 1.6 | 0.0 | 0.00 | 0.00 | 0.00 | 55 | 1005.1 |
| 20260504230016 | 11 | 360 | 6.4 | 0.0 | 0.00 | 0.00 | 0.00 | 54 | 1004.7 |
| 20260504225512 | 11 | 64 | 6.4 | 0.0 | 0.00 | 0.00 | 0.00 | 54 | 1004.4 |
| 20260504225015 | 11 | 188 | 4.8 | 0.0 | 0.00 | 0.00 | 0.00 | 54 | 1004.4 |
| 20260504224514 | 11 | 330 | 1.6 | 0.0 | 0.00 | 0.00 | 0.00 | 53 | 1004.4 |
| 20260504224012 | 11 | 52 | 4.8 | 0.0 | 0.00 | 0.00 | 0.00 | 53 | 1004.4 |
| 20260504223512 | 11 | 313 | 4.8 | 0.0 | 0.00 | 0.00 | 0.00 | 50 | 1004.4 |
| 20260504223014 | 11 | 35 | 14.5 | 0.0 | 0.00 | 0.00 | 0.00 | 50 | 1004.4 |
| 20260504222514 | 11 | 149 | 19.3 | 0.0 | 0.00 | 0.00 | 0.00 | 50 | 1004.1 |
| 20260504222011 | 11 | 11 | 0.0 | 0.0 | 0.00 | 0.00 | 0.00 | 50 | 1004.4 |
| 20260504221514 | 11 | 333 | 4.8 | 0.0 | 0.00 | 0.00 | 0.00 | 49 | 1004.4 |
| 20260504221012 | 11 | 86 | 8.0 | 0.0 | 0.00 | 0.00 | 0.00 | 51 | 1004.1 |
| 20260504220510 | 12 | 112 | 8.0 | 0.0 | 0.00 | 0.00 | 0.00 | 49 | 1003.4 |
| 20260504220014 | 13 | 147 | 8.0 | 0.0 | 0.00 | 0.00 | 0.00 | 44 | 1003.0 |
| 20260504215512 | 13 | 123 | 11.3 | 0.0 | 0.00 | 0.00 | 0.00 | 41 | 1002.4 |
| 20260504215014 | 14 | 155 | 16.1 | 0.0 | 0.00 | 0.00 | 0.00 | 39 | 1002.0 |
| 20260504214510 | 15 | 117 | 8.0 | 0.0 | 0.00 | 0.00 | 0.00 | 37 | 1001.4 |
| 20260504214012 | 15 | 181 | 6.4 | 0.0 | 0.00 | 0.00 | 0.00 | 37 | 1001.4 |
| 20260504213514 | 15 | 123 | 14.5 | 0.0 | 0.00 | 0.00 | 0.00 | 35 | 1001.4 |
| 20260504213012 | 16 | 103 | 3.2 | 0.0 | 0.00 | 0.00 | 0.00 | 34 | 1000.3 |
| 20260504212614 | 16 | 237 | 4.8 | 0.0 | 0.00 | 0.00 | 0.00 | 34 | 1000.3 |
| 20260504212129 | 16 | 118 | 3.2 | 0.0 | 0.00 | 0.00 | 0.00 | 33 | 1000.3 |
| 20260504211612 | 16 | 323 | 4.8 | 0.0 | 0.00 | 0.00 | 0.00 | 34 | 1000.3 |
| 20260504211113 | 16 | 212 | 3.2 | 0.0 | 0.00 | 0.00 | 0.00 | 33 | 1000.0 |
| 20260504210612 | 17 | 177 | 16.1 | 0.0 | 0.00 | 0.00 | 0.00 | 32 | 999.7 |
| 20260504210114 | 17 | 213 | 4.8 | 0.0 | 0.00 | 0.00 | 0.00 | 33 | 999.7 |
| 20260504205611 | 16 | 206 | 4.8 | 0.0 | 0.00 | 0.00 | 0.00 | 34 | 1000.7 |
| 20260504205044 | 16 | 202 | 11.3 | 0.0 | 0.00 | 0.00 | 0.00 | 35 | 1000.7 |
| 20260504204615 | 16 | 183 | 8.0 | 0.0 | 0.00 | 0.00 | 0.00 | 37 | 1000.7 |
| 20260504204041 | 15 | 190 | 11.3 | 0.0 | 0.00 | 0.00 | 0.00 | 37 | 1001.4 |
| 20260504203611 | 15 | 198 | 11.3 | 0.0 | 0.00 | 0.00 | 0.00 | 37 | 1001.4 |
| 20260504203042 | 15 | 188 | 16.1 | 0.0 | 0.00 | 0.00 | 0.00 | 38 | 1001.7 |
| 20260504202540 | 15 | 210 | 4.8 | 0.0 | 0.00 | 0.00 | 0.00 | 38 | 1001.7 |
| 20260504202041 | 15 | 172 | 4.8 | 0.0 | 0.00 | 0.00 | 0.00 | 39 | 1002.0 |
| 20260504201543 | 14 | 179 | 14.5 | 0.0 | 0.00 | 0.00 | 0.00 | 40 | 1002.4 |
| 20260504201118 | 15 | 175 | 9.7 | 0.0 | 0.00 | 0.00 | 0.00 | 40 | 1002.4 |
| 20260504200539 | 15 | 213 | 8.0 | 0.0 | 0.00 | 0.00 | 0.00 | 41 | 1002.4 |
| 20260504200042 | 14 | 243 | 1.6 | 0.0 | 0.00 | 0.00 | 0.00 | 43 | 1002.4 |
| 20260504195616 | 13 | 155 | 1.6 | 0.0 | 0.00 | 0.00 | 0.00 | 45 | 1003.0 |
| 20260504195039 | 13 | 332 | 4.8 | 0.0 | 0.00 | 0.00 | 0.00 | 44 | 1003.4 |
| 20260504194614 | 13 | 360 | 4.8 | 0.0 | 0.00 | 0.00 | 0.00 | 44 | 1003.7 |
| 20260504194041 | 12 | 28 | 1.6 | 0.0 | 0.00 | 0.00 | 0.00 | 45 | 1004.4 |
| 20260504193539 | 12 | 330 | 8.0 | 0.0 | 0.00 | 0.00 | 0.00 | 44 | 1004.4 |
| 20260504193040 | 13 | 262 | 8.0 | 0.0 | 0.00 | 0.00 | 0.00 | 43 | 1004.1 |
| 20260504192538 | 13 | 335 | 4.8 | 0.0 | 0.00 | 0.00 | 0.00 | 43 | 1003.7 |
| 20260504192044 | 13 | 346 | 16.1 | 0.0 | 0.00 | 0.00 | 0.00 | 42 | 1003.7 |
| 20260504191541 | 13 | 339 | 6.4 | 0.0 | 0.00 | 0.00 | 0.00 | 40 | 1003.7 |
| 20260504191044 | 14 | 28 | 11.3 | 0.0 | 0.00 | 0.00 | 0.00 | 39 | 1003.0 |
| 20260504190539 | 15 | 360 | 16.1 | 0.0 | 0.00 | 0.00 | 0.00 | 37 | 1002.7 |
| 20260504190041 | 15 | 292 | 17.7 | 0.0 | 0.00 | 0.00 | 0.00 | 35 | 1001.7 |
| 20260504185540 | 15 | 42 | 9.7 | 0.0 | 0.00 | 0.00 | 0.00 | 34 | 1001.4 |
| 20260504185045 | 15 | 142 | 4.8 | 0.0 | 0.00 | 0.00 | 0.00 | 33 | 1001.4 |
| 20260504184541 | 15 | 175 | 16.1 | 0.0 | 0.00 | 0.00 | 0.00 | 33 | 1001.4 |
| 20260504184038 | 15 | 192 | 3.2 | 0.0 | 0.00 | 0.00 | 0.00 | 34 | 1001.7 |
| 20260504183540 | 15 | 80 | 0.0 | 0.0 | 0.00 | 0.00 | 0.00 | 33 | 1002.0 |
| 20260504183042 | 15 | 315 | 1.6 | 0.0 | 0.00 | 0.00 | 0.00 | 35 | 1002.0 |
| 20260504182539 | 14 | 294 | 8.0 | 0.0 | 0.00 | 0.00 | 0.00 | 36 | 1002.4 |
| 20260504182042 | 15 | 315 | 9.7 | 0.0 | 0.00 | 0.00 | 0.00 | 34 | 1002.4 |
| 20260504181539 | 15 | 333 | 9.7 | 0.0 | 0.00 | 0.00 | 0.00 | 35 | 1001.7 |
| 20260504181040 | 15 | 355 | 17.7 | 0.0 | 0.00 | 0.00 | 0.00 | 34 | 1001.7 |
| 20260504180537 | 16 | 349 | 14.5 | 0.0 | 0.00 | 0.00 | 0.00 | 33 | 1001.7 |
| 20260504180043 | 15 | 332 | 9.7 | 0.0 | 0.00 | 0.00 | 0.00 | 33 | 1001.4 |
| 20260504175538 | 15 | 18 | 4.8 | 0.0 | 0.00 | 0.00 | 0.00 | 34 | 1001.0 |
| 20260504175039 | 16 | 9 | 9.7 | 0.0 | 0.00 | 0.00 | 0.00 | 34 | 1001.0 |
| 20260504174542 | 15 | 28 | 9.7 | 0.0 | 0.00 | 0.00 | 0.00 | 34 | 1001.4 |
| 20260504174044 | 16 | 355 | 11.3 | 0.0 | 0.00 | 0.00 | 0.00 | 33 | 1001.4 |
| 20260504173540 | 16 | 338 | 6.4 | 0.0 | 0.00 | 0.00 | 0.00 | 34 | 1001.4 |
| 20260504173038 | 16 | 78 | 9.7 | 0.0 | 0.00 | 0.00 | 0.00 | 33 | 1001.4 |
| 20260504172539 | 16 | 282 | 16.1 | 0.0 | 0.00 | 0.00 | 0.00 | 33 | 1001.0 |
| 20260504172040 | 16 | 360 | 6.4 | 0.0 | 0.00 | 0.00 | 0.00 | 32 | 1001.0 |
| 20260504171541 | 16 | 336 | 1.6 | 0.0 | 0.00 | 0.00 | 0.00 | 33 | 1001.4 |
| 20260504171040 | 16 | 315 | 1.6 | 0.0 | 0.00 | 0.00 | 0.00 | 34 | 1001.7 |
| 20260504170538 | 16 | 214 | 6.4 | 0.0 | 0.00 | 0.00 | 0.00 | 33 | 1001.7 |
| 20260504151026 | 10 | 18 | 0.0 | 0.0 | 0.00 | 0.00 | 0.00 | 42 | 1003.4 |
| 20260504150524 | 10 | 18 | 0.0 | 0.0 | 0.00 | 0.00 | 0.00 | 42 | 1003.4 |
| 20260504141025 | 7 | 360 | 0.0 | 0.0 | 0.00 | 0.00 | 0.00 | 45 | 1004.4 |
| 20260504140523 | 7 | 350 | 8.0 | 0.0 | 0.00 | 0.00 | 0.00 | 46 | 1004.1 |
| 20260504130623 | 3 | 21 | 8.0 | 0.0 | 0.00 | 0.00 | 0.00 | 54 | 1005.8 |
| 20260504130124 | 3 | 360 | 6.4 | 0.0 | 0.00 | 0.00 | 0.00 | 55 | 1005.1 |
| 20260504110540 | 2 | 16 | 6.4 | 0.0 | 0.00 | 0.00 | 0.00 | 54 | 1004.7 |
| 20260504100543 | 3 | 26 | 6.4 | 0.0 | 0.00 | 0.00 | 0.00 | 52 | 1004.1 |
| 20260504081537 | 4 | 16 | 6.4 | 0.0 | 0.00 | 0.00 | 0.00 | 53 | 1004.4 |
| 20260504081041 | 4 | 18 | 8.0 | 0.0 | 0.00 | 0.00 | 0.00 | 53 | 1004.4 |
| 20260504080537 | 4 | 22 | 9.7 | 0.0 | 0.00 | 0.00 | 0.00 | 53 | 1004.4 |
| 20260504050613 | 8 | 19 | 3.2 | 0.0 | 0.00 | 0.00 | 0.00 | 46 | 1003.7 |
| 20260504050113 | 8 | 19 | 3.2 | 0.0 | 0.00 | 0.00 | 0.00 | 45 | 1005.1 |
| 20260504045615 | 8 | 19 | 1.6 | 0.0 | 0.00 | 0.00 | 0.00 | 45 | 1004.7 |
| 20260504045114 | 9 | 19 | 3.2 | 0.0 | 0.00 | 0.00 | 0.00 | 45 | 1004.4 |
| 20260504044610 | 9 | 344 | 3.2 | 0.0 | 0.00 | 0.00 | 0.00 | 44 | 1004.4 |
| 20260504044113 | 9 | 344 | 1.6 | 0.0 | 0.00 | 0.00 | 0.00 | 44 | 1004.4 |
| 20260504043612 | 10 | 321 | 0.0 | 0.0 | 0.00 | 0.00 | 0.00 | 43 | 1004.4 |
| 20260504043113 | 10 | 360 | 1.6 | 0.0 | 0.00 | 0.00 | 0.00 | 42 | 1004.4 |
| 20260504042613 | 10 | 295 | 0.0 | 0.0 | 0.00 | 0.00 | 0.00 | 42 | 1004.1 |
| 20260504042115 | 10 | 355 | 0.0 | 0.0 | 0.00 | 0.00 | 0.00 | 42 | 1003.7 |
| 20260504041612 | 11 | 360 | 0.0 | 0.0 | 0.00 | 0.00 | 0.00 | 41 | 1004.1 |
| 20260504041116 | 11 | 5 | 1.6 | 0.0 | 0.00 | 0.00 | 0.00 | 41 | 1004.1 |
| 20260504040613 | 11 | 360 | 4.8 | 0.0 | 0.00 | 0.00 | 0.00 | 40 | 1003.4 |
| 20260504040113 | 11 | 320 | 9.7 | 0.0 | 0.00 | 0.00 | 0.00 | 40 | 1005.4 |
| 20260504035613 | 11 | 360 | 3.2 | 0.0 | 0.00 | 0.00 | 0.00 | 41 | 1005.4 |
| 20260504035112 | 11 | 24 | 8.0 | 0.0 | 0.00 | 0.00 | 0.00 | 40 | 1005.4 |
| 20260504034613 | 11 | 5 | 4.8 | 0.0 | 0.00 | 0.00 | 0.00 | 40 | 1004.7 |
| 20260504034113 | 11 | 9 | 4.8 | 0.0 | 0.00 | 0.00 | 0.00 | 39 | 1004.7 |
| 20260504033616 | 11 | 355 | 4.8 | 0.0 | 0.00 | 0.00 | 0.00 | 39 | 1004.7 |
| 20260504033113 | 12 | 355 | 1.6 | 0.0 | 0.00 | 0.00 | 0.00 | 39 | 1004.7 |
| 20260504032611 | 12 | 15 | 3.2 | 0.0 | 0.00 | 0.00 | 0.00 | 39 | 1004.7 |
| 20260504032111 | 12 | 14 | 1.6 | 0.0 | 0.00 | 0.00 | 0.00 | 38 | 1004.7 |
| 20260504031614 | 12 | 15 | 0.0 | 0.0 | 0.00 | 0.00 | 0.00 | 37 | 1004.4 |
| 20260504031113 | 12 | 15 | 1.6 | 0.0 | 0.00 | 0.00 | 0.00 | 37 | 1004.4 |
| 20260504030613 | 12 | 309 | 3.2 | 0.0 | 0.00 | 0.00 | 0.00 | 36 | 1004.4 |
| 20260504030114 | 12 | 303 | 3.2 | 0.0 | 0.00 | 0.00 | 0.00 | 36 | 1006.4 |
| 20260504025613 | 12 | 346 | 1.6 | 0.0 | 0.00 | 0.00 | 0.00 | 36 | 1006.1 |
| 20260504025115 | 13 | 355 | 3.2 | 0.0 | 0.00 | 0.00 | 0.00 | 36 | 1005.4 |
| 20260504024610 | 13 | 290 | 0.0 | 0.0 | 0.00 | 0.00 | 0.00 | 36 | 1005.4 |
| 20260504024114 | 13 | 294 | 4.8 | 0.0 | 0.00 | 0.00 | 0.00 | 36 | 1005.4 |
| 20260504023611 | 13 | 311 | 4.8 | 0.0 | 0.00 | 0.00 | 0.00 | 35 | 1005.4 |
| 20260504023112 | 13 | 350 | 8.0 | 0.0 | 0.00 | 0.00 | 0.00 | 35 | 1005.4 |